Location: Recife
(8.0585°S, 34.8848°W)
Time: 21:30:14
(UTC-03:00)

A-11 Canister half - Pass Details

Date: 17 April 2026
Orbit: 1523 x 1684 km, 47.3° (Epoch: 16 May)

Event Time Altitude Azimuth Distance (km) Brightness Sun altitude
Rises 20:20:13 0° 224° (SW) 4,732 11.9 -45.9°
Reaches altitude 10° 20:23:15 10° 225° (SW) 3,765 11.3 -46.6°
Enters shadow 20:27:48 33° 230° (SW) 2,421 10.1 -47.7°
Maximum altitude 20:32:49 76° 309° (NW) 1,647 - -48.9°
Drops below altitude 10° 20:42:42 10° 34° (NE) 3,879 - -51.4°
Sets 20:45:53 0° 36° (NE) 4,881 - -52.2°
